owner,sensor,date,latitude,longitude,air_pressure(mBar),qcFlag 
COMPS,ioos:station:USF.COMPS:ANC:1,2009-08-04T19:00:00Z,28.1930,-82.7890,1017.37,1111122 
COMPS,ioos:station:USF.COMPS:ANC:1,2009-08-04T19:06:00Z,28.1930,-82.7890,1017.33,1111122 
COMPS,ioos:station:USF.COMPS:ANC:1,2009-08-04T19:12:00Z,28.1930,-82.7890,1017.3,1111122 
COMPS,ioos:station:USF.COMPS:ANC:1,2009-08-04T19:18:00Z,28.1930,-82.7890,1017.18,1111122 
COMPS,ioos:station:USF.COMPS:ANC:1,2009-08-04T19:24:00Z,28.1930,-82.7890,1017.18,1111122 
COMPS,ioos:station:USF.COMPS:ANC:1,2009-08-04T19:30:00Z,28.1930,-82.7890,1017.21,1111122 
COMPS,ioos:station:USF.COMPS:ANC:1,2009-08-04T19:36:00Z,28.1930,-82.7890,1017.29,1111122 
COMPS,ioos:station:USF.COMPS:ANC:1,2009-08-04T19:42:00Z,28.1930,-82.7890,1017.21,1111122 
COMPS,ioos:station:USF.COMPS:ANC:1,2009-08-04T19:48:00Z,28.1930,-82.7890,1017.12,1111122 
COMPS,ioos:station:USF.COMPS:ANC:1,2009-08-04T19:54:00Z,28.1930,-82.7890,1017.12,1111122 
COMPS,ioos:station:USF.COMPS:ANC:1,2009-08-08T21:00:00Z,28.1930,-82.7890,1019.02,1111122 
COMPS,ioos:station:USF.COMPS:ANC:1,2009-08-08T21:06:00Z,28.1930,-82.7890,1018.96,1111122 
COMPS,ioos:station:USF.COMPS:ANC:1,2009-08-08T21:12:00Z,28.1930,-82.7890,1019.01,1111122 
COMPS,ioos:station:USF.COMPS:ANC:1,2009-08-08T21:18:00Z,28.1930,-82.7890,1018.8,1111122 
COMPS,ioos:station:USF.COMPS:ANC:1,2009-08-08T21:24:00Z,28.1930,-82.7890,1018.73,1111122 
COMPS,ioos:station:USF.COMPS:ANC:1,2009-08-08T21:30:00Z,28.1930,-82.7890,1018.57,1111122 
COMPS,ioos:station:USF.COMPS:ANC:1,2009-08-08T21:36:00Z,28.1930,-82.7890,1018.42,1111122 
COMPS,ioos:station:USF.COMPS:ANC:1,2009-08-08T21:42:00Z,28.1930,-82.7890,1018.56,1111122 
COMPS,ioos:station:USF.COMPS:ANC:1,2009-08-08T21:48:00Z,28.1930,-82.7890,1018.65,1111122 
COMPS,ioos:station:USF.COMPS:ANC:1,2009-08-08T21:54:00Z,28.1930,-82.7890,1018.81,1111122 
COMPS,ioos:station:USF.COMPS:ANC:1,2009-08-08T22:00:00Z,28.1930,-82.7890,1018.9,1111122 
COMPS,ioos:station:USF.COMPS:ANC:1,2009-08-08T22:06:00Z,28.1930,-82.7890,1019.1,1111122 
COMPS,ioos:station:USF.COMPS:ANC:1,2009-08-08T22:12:00Z,28.1930,-82.7890,1019.38,1111122 
COMPS,ioos:station:USF.COMPS:ANC:1,2009-08-08T22:18:00Z,28.1930,-82.7890,1019.64,1111122 
COMPS,ioos:station:USF.COMPS:ANC:1,2009-08-08T22:24:00Z,28.1930,-82.7890,1019.98,1111122 
COMPS,ioos:station:USF.COMPS:ANC:1,2009-08-08T22:30:00Z,28.1930,-82.7890,1019.8,1111122 
COMPS,ioos:station:USF.COMPS:ANC:1,2009-08-08T22:36:00Z,28.1930,-82.7890,1019.68,1111122 
COMPS,ioos:station:USF.COMPS:ANC:1,2009-08-08T22:42:00Z,28.1930,-82.7890,1019.68,1111122 
COMPS,ioos:station:USF.COMPS:ANC:1,2009-08-08T22:48:00Z,28.1930,-82.7890,1019.37,1111122 
COMPS,ioos:station:USF.COMPS:ANC:1,2009-08-08T22:54:00Z,28.1930,-82.7890,1019.34,1111122 
COMPS,ioos:station:USF.COMPS:ANC:1,2009-08-08T23:00:00Z,28.1930,-82.7890,1019.44,1111122 
COMPS,ioos:station:USF.COMPS:ANC:1,2009-08-08T23:06:00Z,28.1930,-82.7890,1019.69,1111122 
COMPS,ioos:station:USF.COMPS:ANC:1,2009-08-08T23:12:00Z,28.1930,-82.7890,1019.98,1111122 
COMPS,ioos:station:USF.COMPS:ANC:1,2009-08-08T23:18:00Z,28.1930,-82.7890,1020.13,1111122 
COMPS,ioos:station:USF.COMPS:ANC:1,2009-08-08T23:24:00Z,28.1930,-82.7890,1020.14,1111122 
COMPS,ioos:station:USF.COMPS:ANC:1,2009-08-08T23:30:00Z,28.1930,-82.7890,1020.38,1111122 
COMPS,ioos:station:USF.COMPS:ANC:1,2009-08-08T23:36:00Z,28.1930,-82.7890,1020.38,1111122 
COMPS,ioos:station:USF.COMPS:ANC:1,2009-08-08T23:42:00Z,28.1930,-82.7890,1020.48,1111122 
COMPS,ioos:station:USF.COMPS:ANC:1,2009-08-08T23:48:00Z,28.1930,-82.7890,1020.42,1111122 
COMPS,ioos:station:USF.COMPS:ANC:1,2009-08-08T23:54:00Z,28.1930,-82.7890,1020.4,1111122 
COMPS,ioos:station:USF.COMPS:ANC:1,2009-08-09T00:00:00Z,28.1930,-82.7890,1020.32,1111122 
COMPS,ioos:station:USF.COMPS:ANC:1,2009-08-09T00:06:00Z,28.1930,-82.7890,1020.29,1111122 
COMPS,ioos:station:USF.COMPS:ANC:1,2009-08-09T00:12:00Z,28.1930,-82.7890,1020.18,1111122 
COMPS,ioos:station:USF.COMPS:ANC:1,2009-08-09T00:18:00Z,28.1930,-82.7890,1020.25,1111122 
COMPS,ioos:station:USF.COMPS:ANC:1,2009-08-09T00:24:00Z,28.1930,-82.7890,1020.36,1111122 
COMPS,ioos:station:USF.COMPS:ANC:1,2009-08-09T00:30:00Z,28.1930,-82.7890,1020.29,1111122 
COMPS,ioos:station:USF.COMPS:ANC:1,2009-08-09T00:36:00Z,28.1930,-82.7890,1020.26,1111122 
COMPS,ioos:station:USF.COMPS:ANC:1,2009-08-09T00:42:00Z,28.1930,-82.7890,1020.29,1111122 
COMPS,ioos:station:USF.COMPS:ANC:1,2009-08-09T00:48:00Z,28.1930,-82.7890,1020.41,1111122 
COMPS,ioos:station:USF.COMPS:ANC:1,2009-08-09T00:54:00Z,28.1930,-82.7890,1020.48,1111122 
COMPS,ioos:station:USF.COMPS:ANC:1,2009-08-09T01:00:00Z,28.1930,-82.7890,1020.49,1111122 
COMPS,ioos:station:USF.COMPS:ANC:1,2009-08-09T01:06:00Z,28.1930,-82.7890,1020.6,1111122 
COMPS,ioos:station:USF.COMPS:ANC:1,2009-08-09T01:12:00Z,28.1930,-82.7890,1020.66,1111122 
COMPS,ioos:station:USF.COMPS:ANC:1,2009-08-09T01:18:00Z,28.1930,-82.7890,1020.74,1111122 
COMPS,ioos:station:USF.COMPS:ANC:1,2009-08-09T01:24:00Z,28.1930,-82.7890,1020.68,1111122 
COMPS,ioos:station:USF.COMPS:ANC:1,2009-08-09T01:30:00Z,28.1930,-82.7890,1020.6,1111122 
COMPS,ioos:station:USF.COMPS:ANC:1,2009-08-09T01:36:00Z,28.1930,-82.7890,1020.6,1111122 
COMPS,ioos:station:USF.COMPS:ANC:1,2009-08-09T01:42:00Z,28.1930,-82.7890,1020.68,1111122 
COMPS,ioos:station:USF.COMPS:ANC:1,2009-08-09T01:48:00Z,28.1930,-82.7890,1020.72,1111122 
COMPS,ioos:station:USF.COMPS:ANC:1,2009-08-09T01:54:00Z,28.1930,-82.7890,1020.73,1111122 
COMPS,ioos:station:USF.COMPS:ANC:1,2009-08-09T02:00:00Z,28.1930,-82.7890,1020.8,1111122 
COMPS,ioos:station:USF.COMPS:ANC:1,2009-08-09T02:06:00Z,28.1930,-82.7890,1020.88,1111122 
COMPS,ioos:station:USF.COMPS:ANC:1,2009-08-09T02:12:00Z,28.1930,-82.7890,1021.0,1111122 
COMPS,ioos:station:USF.COMPS:ANC:1,2009-08-09T02:18:00Z,28.1930,-82.7890,1020.98,1111122 
COMPS,ioos:station:USF.COMPS:ANC:1,2009-08-09T02:24:00Z,28.1930,-82.7890,1021.0,1111122 
COMPS,ioos:station:USF.COMPS:ANC:1,2009-08-09T02:30:00Z,28.1930,-82.7890,1021.02,1111122 
COMPS,ioos:station:USF.COMPS:ANC:1,2009-08-09T02:36:00Z,28.1930,-82.7890,1021.0,1111122 
COMPS,ioos:station:USF.COMPS:ANC:1,2009-08-09T02:42:00Z,28.1930,-82.7890,1020.97,1111122 
COMPS,ioos:station:USF.COMPS:ANC:1,2009-08-09T02:48:00Z,28.1930,-82.7890,1020.97,1111122 
COMPS,ioos:station:USF.COMPS:ANC:1,2009-08-09T02:54:00Z,28.1930,-82.7890,1020.94,1111122 
COMPS,ioos:station:USF.COMPS:ANC:1,2009-08-09T03:00:00Z,28.1930,-82.7890,1020.98,1111122 
COMPS,ioos:station:USF.COMPS:ANC:1,2009-08-09T03:06:00Z,28.1930,-82.7890,1020.97,1111122 
COMPS,ioos:station:USF.COMPS:ANC:1,2009-08-09T03:12:00Z,28.1930,-82.7890,1021.0,1111122 
COMPS,ioos:station:USF.COMPS:ANC:1,2009-08-09T03:18:00Z,28.1930,-82.7890,1021.04,1111122 
COMPS,ioos:station:USF.COMPS:ANC:1,2009-08-09T03:24:00Z,28.1930,-82.7890,1021.1,1111122 
COMPS,ioos:station:USF.COMPS:ANC:1,2009-08-09T03:30:00Z,28.1930,-82.7890,1021.25,1111122 
COMPS,ioos:station:USF.COMPS:ANC:1,2009-08-09T03:36:00Z,28.1930,-82.7890,1021.3,1111122 
COMPS,ioos:station:USF.COMPS:ANC:1,2009-08-09T03:42:00Z,28.1930,-82.7890,1021.29,1111122 
COMPS,ioos:station:USF.COMPS:ANC:1,2009-08-09T03:48:00Z,28.1930,-82.7890,1021.32,1111122 
COMPS,ioos:station:USF.COMPS:ANC:1,2009-08-09T03:54:00Z,28.1930,-82.7890,1021.3,1111122 
COMPS,ioos:station:USF.COMPS:ANC:1,2009-08-09T05:00:00Z,28.1930,-82.7890,1021.77,1111122 
COMPS,ioos:station:USF.COMPS:ANC:1,2009-08-09T05:06:00Z,28.1930,-82.7890,1021.69,1111122 
COMPS,ioos:station:USF.COMPS:ANC:1,2009-08-09T05:12:00Z,28.1930,-82.7890,1021.62,1111122 
COMPS,ioos:station:USF.COMPS:ANC:1,2009-08-09T05:18:00Z,28.1930,-82.7890,1021.57,1111122 
COMPS,ioos:station:USF.COMPS:ANC:1,2009-08-09T05:24:00Z,28.1930,-82.7890,1021.56,1111122 
COMPS,ioos:station:USF.COMPS:ANC:1,2009-08-09T05:30:00Z,28.1930,-82.7890,1021.54,1111122 
COMPS,ioos:station:USF.COMPS:ANC:1,2009-08-09T05:36:00Z,28.1930,-82.7890,1021.44,1111122 
COMPS,ioos:station:USF.COMPS:ANC:1,2009-08-09T05:42:00Z,28.1930,-82.7890,1021.29,1111122 
COMPS,ioos:station:USF.COMPS:ANC:1,2009-08-09T05:48:00Z,28.1930,-82.7890,1021.12,1111122 
COMPS,ioos:station:USF.COMPS:ANC:1,2009-08-09T05:54:00Z,28.1930,-82.7890,1021.04,1111122 
COMPS,ioos:station:USF.COMPS:ANC:1,2009-08-09T06:00:00Z,28.1930,-82.7890,1021.02,1111122 
COMPS,ioos:station:USF.COMPS:ANC:1,2009-08-09T06:06:00Z,28.1930,-82.7890,1021.02,1111122 
COMPS,ioos:station:USF.COMPS:ANC:1,2009-08-09T06:12:00Z,28.1930,-82.7890,1020.97,1111122 
COMPS,ioos:station:USF.COMPS:ANC:1,2009-08-09T06:18:00Z,28.1930,-82.7890,1020.93,1111122 
COMPS,ioos:station:USF.COMPS:ANC:1,2009-08-09T06:24:00Z,28.1930,-82.7890,1020.81,1111122 
COMPS,ioos:station:USF.COMPS:ANC:1,2009-08-09T06:30:00Z,28.1930,-82.7890,1020.69,1111122 
COMPS,ioos:station:USF.COMPS:ANC:1,2009-08-09T06:36:00Z,28.1930,-82.7890,1020.64,1111122 
COMPS,ioos:station:USF.COMPS:ANC:1,2009-08-09T06:42:00Z,28.1930,-82.7890,1020.6,1111122 
COMPS,ioos:station:USF.COMPS:ANC:1,2009-08-09T06:48:00Z,28.1930,-82.7890,1020.56,1111122 
COMPS,ioos:station:USF.COMPS:ANC:1,2009-08-09T06:54:00Z,28.1930,-82.7890,1020.52,1111122 
COMPS,ioos:station:USF.COMPS:ANC:1,2009-08-09T07:00:00Z,28.1930,-82.7890,1020.44,1111122 
COMPS,ioos:station:USF.COMPS:ANC:1,2009-08-09T07:06:00Z,28.1930,-82.7890,1020.33,1111122 
COMPS,ioos:station:USF.COMPS:ANC:1,2009-08-09T07:12:00Z,28.1930,-82.7890,1020.3,1111122 
COMPS,ioos:station:USF.COMPS:ANC:1,2009-08-09T07:18:00Z,28.1930,-82.7890,1020.2,1111122 
COMPS,ioos:station:USF.COMPS:ANC:1,2009-08-09T07:24:00Z,28.1930,-82.7890,1020.21,1111122 
COMPS,ioos:station:USF.COMPS:ANC:1,2009-08-09T07:30:00Z,28.1930,-82.7890,1020.12,1111122 
COMPS,ioos:station:USF.COMPS:ANC:1,2009-08-09T07:36:00Z,28.1930,-82.7890,1020.04,1111122 
COMPS,ioos:station:USF.COMPS:ANC:1,2009-08-09T07:42:00Z,28.1930,-82.7890,1019.93,1111122 
COMPS,ioos:station:USF.COMPS:ANC:1,2009-08-09T07:48:00Z,28.1930,-82.7890,1019.92,1111122 
COMPS,ioos:station:USF.COMPS:ANC:1,2009-08-09T07:54:00Z,28.1930,-82.7890,1019.92,1111122 
COMPS,ioos:station:USF.COMPS:ANC:1,2009-08-09T08:00:00Z,28.1930,-82.7890,1019.9,1111122 
COMPS,ioos:station:USF.COMPS:ANC:1,2009-08-09T08:06:00Z,28.1930,-82.7890,1019.93,1111122 
COMPS,ioos:station:USF.COMPS:ANC:1,2009-08-09T08:12:00Z,28.1930,-82.7890,1019.93,1111122 
COMPS,ioos:station:USF.COMPS:ANC:1,2009-08-09T08:18:00Z,28.1930,-82.7890,1019.93,1111122 
COMPS,ioos:station:USF.COMPS:ANC:1,2009-08-09T08:24:00Z,28.1930,-82.7890,1019.86,1111122 
COMPS,ioos:station:USF.COMPS:ANC:1,2009-08-09T08:30:00Z,28.1930,-82.7890,1019.86,1111122 
COMPS,ioos:station:USF.COMPS:ANC:1,2009-08-09T08:36:00Z,28.1930,-82.7890,1019.93,1111122 
COMPS,ioos:station:USF.COMPS:ANC:1,2009-08-09T08:42:00Z,28.1930,-82.7890,1019.93,1111122 
COMPS,ioos:station:USF.COMPS:ANC:1,2009-08-09T08:48:00Z,28.1930,-82.7890,1019.92,1111122 
COMPS,ioos:station:USF.COMPS:ANC:1,2009-08-09T08:54:00Z,28.1930,-82.7890,1019.9,1111122 
COMPS,ioos:station:USF.COMPS:ANC:1,2009-08-09T09:00:00Z,28.1930,-82.7890,1019.89,1111122 
COMPS,ioos:station:USF.COMPS:ANC:1,2009-08-09T09:06:00Z,28.1930,-82.7890,1019.85,1111122 
COMPS,ioos:station:USF.COMPS:ANC:1,2009-08-09T09:12:00Z,28.1930,-82.7890,1019.82,1111122 
COMPS,ioos:station:USF.COMPS:ANC:1,2009-08-09T09:18:00Z,28.1930,-82.7890,1019.82,1111122 
COMPS,ioos:station:USF.COMPS:ANC:1,2009-08-09T09:24:00Z,28.1930,-82.7890,1019.76,1111122 
COMPS,ioos:station:USF.COMPS:ANC:1,2009-08-09T09:30:00Z,28.1930,-82.7890,1019.68,1111122 
COMPS,ioos:station:USF.COMPS:ANC:1,2009-08-09T09:36:00Z,28.1930,-82.7890,1019.7,1111122 
COMPS,ioos:station:USF.COMPS:ANC:1,2009-08-09T09:42:00Z,28.1930,-82.7890,1019.84,1111122 
COMPS,ioos:station:USF.COMPS:ANC:1,2009-08-09T09:48:00Z,28.1930,-82.7890,1019.88,1111122 
COMPS,ioos:station:USF.COMPS:ANC:1,2009-08-09T09:54:00Z,28.1930,-82.7890,1019.92,1111122 
COMPS,ioos:station:USF.COMPS:ANC:1,2009-08-09T10:00:00Z,28.1930,-82.7890,1019.92,1111122 
COMPS,ioos:station:USF.COMPS:ANC:1,2009-08-09T10:06:00Z,28.1930,-82.7890,1019.93,1111122 
COMPS,ioos:station:USF.COMPS:ANC:1,2009-08-09T10:12:00Z,28.1930,-82.7890,1020.05,1111122 
COMPS,ioos:station:USF.COMPS:ANC:1,2009-08-09T10:18:00Z,28.1930,-82.7890,1020.14,1111122 
COMPS,ioos:station:USF.COMPS:ANC:1,2009-08-09T10:24:00Z,28.1930,-82.7890,1020.18,1111122 
COMPS,ioos:station:USF.COMPS:ANC:1,2009-08-09T10:30:00Z,28.1930,-82.7890,1020.26,1111122 
COMPS,ioos:station:USF.COMPS:ANC:1,2009-08-09T10:36:00Z,28.1930,-82.7890,1020.25,1111122 
COMPS,ioos:station:USF.COMPS:ANC:1,2009-08-09T10:42:00Z,28.1930,-82.7890,1020.32,1111122 
COMPS,ioos:station:USF.COMPS:ANC:1,2009-08-09T10:48:00Z,28.1930,-82.7890,1020.48,1111122 
COMPS,ioos:station:USF.COMPS:ANC:1,2009-08-09T10:54:00Z,28.1930,-82.7890,1020.46,1111122 
COMPS,ioos:station:USF.COMPS:ANC:1,2009-08-09T11:00:00Z,28.1930,-82.7890,1020.52,1111122 
COMPS,ioos:station:USF.COMPS:ANC:1,2009-08-09T11:06:00Z,28.1930,-82.7890,1020.56,1111122 
COMPS,ioos:station:USF.COMPS:ANC:1,2009-08-09T11:12:00Z,28.1930,-82.7890,1020.64,1111122 
COMPS,ioos:station:USF.COMPS:ANC:1,2009-08-09T11:18:00Z,28.1930,-82.7890,1020.58,1111122 
COMPS,ioos:station:USF.COMPS:ANC:1,2009-08-09T11:24:00Z,28.1930,-82.7890,1020.64,1111122 
COMPS,ioos:station:USF.COMPS:ANC:1,2009-08-09T11:30:00Z,28.1930,-82.7890,1020.72,1111122 
COMPS,ioos:station:USF.COMPS:ANC:1,2009-08-09T11:36:00Z,28.1930,-82.7890,1020.86,1111122 
COMPS,ioos:station:USF.COMPS:ANC:1,2009-08-09T11:42:00Z,28.1930,-82.7890,1021.01,1111122 
COMPS,ioos:station:USF.COMPS:ANC:1,2009-08-09T11:48:00Z,28.1930,-82.7890,1021.02,1111122 
COMPS,ioos:station:USF.COMPS:ANC:1,2009-08-09T11:54:00Z,28.1930,-82.7890,1021.02,1111122 
COMPS,ioos:station:USF.COMPS:ANC:1,2009-08-09T12:00:00Z,28.1930,-82.7890,1020.93,1111122 
COMPS,ioos:station:USF.COMPS:ANC:1,2009-08-09T12:06:00Z,28.1930,-82.7890,1020.97,1111122 
COMPS,ioos:station:USF.COMPS:ANC:1,2009-08-09T12:12:00Z,28.1930,-82.7890,1020.92,1111122 
COMPS,ioos:station:USF.COMPS:ANC:1,2009-08-09T12:18:00Z,28.1930,-82.7890,1020.92,1111122 
COMPS,ioos:station:USF.COMPS:ANC:1,2009-08-09T12:24:00Z,28.1930,-82.7890,1020.92,1111122 
COMPS,ioos:station:USF.COMPS:ANC:1,2009-08-09T12:30:00Z,28.1930,-82.7890,1020.97,1111122 
COMPS,ioos:station:USF.COMPS:ANC:1,2009-08-09T12:36:00Z,28.1930,-82.7890,1021.06,1111122 
COMPS,ioos:station:USF.COMPS:ANC:1,2009-08-09T12:42:00Z,28.1930,-82.7890,1021.13,1111122 
COMPS,ioos:station:USF.COMPS:ANC:1,2009-08-09T12:48:00Z,28.1930,-82.7890,1021.21,1111122 
COMPS,ioos:station:USF.COMPS:ANC:1,2009-08-09T12:54:00Z,28.1930,-82.7890,1021.3,1111122 
COMPS,ioos:station:USF.COMPS:ANC:1,2009-08-09T13:00:00Z,28.1930,-82.7890,1021.34,1111122 
COMPS,ioos:station:USF.COMPS:ANC:1,2009-08-09T13:06:00Z,28.1930,-82.7890,1021.42,1111122 
COMPS,ioos:station:USF.COMPS:ANC:1,2009-08-09T13:12:00Z,28.1930,-82.7890,1021.5,1111122 
COMPS,ioos:station:USF.COMPS:ANC:1,2009-08-09T13:18:00Z,28.1930,-82.7890,1021.58,1111122 
COMPS,ioos:station:USF.COMPS:ANC:1,2009-08-09T13:24:00Z,28.1930,-82.7890,1021.65,1111122 
COMPS,ioos:station:USF.COMPS:ANC:1,2009-08-09T13:30:00Z,28.1930,-82.7890,1021.68,1111122 
COMPS,ioos:station:USF.COMPS:ANC:1,2009-08-09T13:36:00Z,28.1930,-82.7890,1021.66,1111122 
COMPS,ioos:station:USF.COMPS:ANC:1,2009-08-09T13:42:00Z,28.1930,-82.7890,1021.76,1111122 
COMPS,ioos:station:USF.COMPS:ANC:1,2009-08-09T13:48:00Z,28.1930,-82.7890,1021.78,1111122 
COMPS,ioos:station:USF.COMPS:ANC:1,2009-08-09T13:54:00Z,28.1930,-82.7890,1021.78,1111122 
COMPS,ioos:station:USF.COMPS:ANC:1,2009-08-09T14:00:00Z,28.1930,-82.7890,1021.78,1111122 
COMPS,ioos:station:USF.COMPS:ANC:1,2009-08-09T14:06:00Z,28.1930,-82.7890,1021.81,1111122 
COMPS,ioos:station:USF.COMPS:ANC:1,2009-08-09T14:12:00Z,28.1930,-82.7890,1021.89,1111122 
COMPS,ioos:station:USF.COMPS:ANC:1,2009-08-09T14:18:00Z,28.1930,-82.7890,1021.89,1111122 
COMPS,ioos:station:USF.COMPS:ANC:1,2009-08-09T14:24:00Z,28.1930,-82.7890,1021.89,1111122 
COMPS,ioos:station:USF.COMPS:ANC:1,2009-08-09T14:30:00Z,28.1930,-82.7890,1021.8,1111122 
COMPS,ioos:station:USF.COMPS:ANC:1,2009-08-09T14:36:00Z,28.1930,-82.7890,1021.85,1111122 
COMPS,ioos:station:USF.COMPS:ANC:1,2009-08-09T14:42:00Z,28.1930,-82.7890,1021.88,1111122 
COMPS,ioos:station:USF.COMPS:ANC:1,2009-08-09T14:48:00Z,28.1930,-82.7890,1021.89,1111122 
COMPS,ioos:station:USF.COMPS:ANC:1,2009-08-09T14:54:00Z,28.1930,-82.7890,1021.94,1111122 
COMPS,ioos:station:USF.COMPS:ANC:1,2009-08-09T15:00:00Z,28.1930,-82.7890,1021.92,1111122 
COMPS,ioos:station:USF.COMPS:ANC:1,2009-08-09T15:06:00Z,28.1930,-82.7890,1022.01,1111122 
COMPS,ioos:station:USF.COMPS:ANC:1,2009-08-09T15:12:00Z,28.1930,-82.7890,1022.01,1111122 
COMPS,ioos:station:USF.COMPS:ANC:1,2009-08-09T15:18:00Z,28.1930,-82.7890,1022.0,1111122 
COMPS,ioos:station:USF.COMPS:ANC:1,2009-08-09T15:24:00Z,28.1930,-82.7890,1021.98,1111122 
COMPS,ioos:station:USF.COMPS:ANC:1,2009-08-09T15:30:00Z,28.1930,-82.7890,1022.04,1111122 
COMPS,ioos:station:USF.COMPS:ANC:1,2009-08-09T15:36:00Z,28.1930,-82.7890,1022.08,1111122 
COMPS,ioos:station:USF.COMPS:ANC:1,2009-08-09T15:42:00Z,28.1930,-82.7890,1022.08,1111122 
COMPS,ioos:station:USF.COMPS:ANC:1,2009-08-09T15:48:00Z,28.1930,-82.7890,1022.1,1111122 
COMPS,ioos:station:USF.COMPS:ANC:1,2009-08-09T15:54:00Z,28.1930,-82.7890,1022.14,1111122 
COMPS,ioos:station:USF.COMPS:ANC:1,2009-08-09T16:00:00Z,28.1930,-82.7890,1022.17,1111122 
COMPS,ioos:station:USF.COMPS:ANC:1,2009-08-09T16:06:00Z,28.1930,-82.7890,1022.12,1111122 
COMPS,ioos:station:USF.COMPS:ANC:1,2009-08-09T16:12:00Z,28.1930,-82.7890,1022.09,1111122 
COMPS,ioos:station:USF.COMPS:ANC:1,2009-08-09T16:18:00Z,28.1930,-82.7890,1022.1,1111122 
COMPS,ioos:station:USF.COMPS:ANC:1,2009-08-09T16:24:00Z,28.1930,-82.7890,1022.1,1111122 
COMPS,ioos:station:USF.COMPS:ANC:1,2009-08-09T16:30:00Z,28.1930,-82.7890,1022.02,1111122 
COMPS,ioos:station:USF.COMPS:ANC:1,2009-08-09T16:36:00Z,28.1930,-82.7890,1021.93,1111122 
COMPS,ioos:station:USF.COMPS:ANC:1,2009-08-09T16:42:00Z,28.1930,-82.7890,1021.85,1111122 
COMPS,ioos:station:USF.COMPS:ANC:1,2009-08-09T16:48:00Z,28.1930,-82.7890,1021.85,1111122 
COMPS,ioos:station:USF.COMPS:ANC:1,2009-08-09T16:54:00Z,28.1930,-82.7890,1021.81,1111122 
COMPS,ioos:station:USF.COMPS:ANC:1,2009-08-09T17:00:00Z,28.1930,-82.7890,1021.8,1111122 
COMPS,ioos:station:USF.COMPS:ANC:1,2009-08-09T17:06:00Z,28.1930,-82.7890,1021.78,1111122 
COMPS,ioos:station:USF.COMPS:ANC:1,2009-08-09T17:12:00Z,28.1930,-82.7890,1021.7,1111122 
COMPS,ioos:station:USF.COMPS:ANC:1,2009-08-09T17:18:00Z,28.1930,-82.7890,1021.64,1111122 
COMPS,ioos:station:USF.COMPS:ANC:1,2009-08-09T17:24:00Z,28.1930,-82.7890,1021.61,1111122 
COMPS,ioos:station:USF.COMPS:ANC:1,2009-08-09T17:30:00Z,28.1930,-82.7890,1021.62,1111122 
COMPS,ioos:station:USF.COMPS:ANC:1,2009-08-09T17:36:00Z,28.1930,-82.7890,1021.5,1111122 
COMPS,ioos:station:USF.COMPS:ANC:1,2009-08-09T17:42:00Z,28.1930,-82.7890,1021.4,1111122 
COMPS,ioos:station:USF.COMPS:ANC:1,2009-08-09T17:48:00Z,28.1930,-82.7890,1021.36,1111122 
COMPS,ioos:station:USF.COMPS:ANC:1,2009-08-09T17:54:00Z,28.1930,-82.7890,1021.21,1111122 
COMPS,ioos:station:USF.COMPS:ANC:1,2009-08-09T18:00:00Z,28.1930,-82.7890,1021.12,1111122 
COMPS,ioos:station:USF.COMPS:ANC:1,2009-08-09T18:06:00Z,28.1930,-82.7890,1021.04,1111122 
COMPS,ioos:station:USF.COMPS:ANC:1,2009-08-09T18:12:00Z,28.1930,-82.7890,1021.0,1111122 
COMPS,ioos:station:USF.COMPS:ANC:1,2009-08-09T18:18:00Z,28.1930,-82.7890,1020.97,1111122 
COMPS,ioos:station:USF.COMPS:ANC:1,2009-08-09T18:24:00Z,28.1930,-82.7890,1020.89,1111122 
COMPS,ioos:station:USF.COMPS:ANC:1,2009-08-09T18:30:00Z,28.1930,-82.7890,1020.88,1111122 
COMPS,ioos:station:USF.COMPS:ANC:1,2009-08-09T18:36:00Z,28.1930,-82.7890,1020.8,1111122 
COMPS,ioos:station:USF.COMPS:ANC:1,2009-08-09T18:42:00Z,28.1930,-82.7890,1020.77,1111122 
COMPS,ioos:station:USF.COMPS:ANC:1,2009-08-09T18:48:00Z,28.1930,-82.7890,1020.68,1111122 
COMPS,ioos:station:USF.COMPS:ANC:1,2009-08-09T18:54:00Z,28.1930,-82.7890,1020.62,1111122 
COMPS,ioos:station:USF.COMPS:ANC:1,2009-08-09T19:00:00Z,28.1930,-82.7890,1020.57,1111122 
COMPS,ioos:station:USF.COMPS:ANC:1,2009-08-09T19:06:00Z,28.1930,-82.7890,1020.5,1111122 
COMPS,ioos:station:USF.COMPS:ANC:1,2009-08-09T19:12:00Z,28.1930,-82.7890,1020.42,1111122 
COMPS,ioos:station:USF.COMPS:ANC:1,2009-08-09T19:18:00Z,28.1930,-82.7890,1020.32,1111122 
COMPS,ioos:station:USF.COMPS:ANC:1,2009-08-09T19:24:00Z,28.1930,-82.7890,1020.22,1111122 
COMPS,ioos:station:USF.COMPS:ANC:1,2009-08-09T19:30:00Z,28.1930,-82.7890,1020.14,1111122 
COMPS,ioos:station:USF.COMPS:ANC:1,2009-08-09T19:36:00Z,28.1930,-82.7890,1020.04,1111122 
COMPS,ioos:station:USF.COMPS:ANC:1,2009-08-09T19:42:00Z,28.1930,-82.7890,1019.96,1111122 
COMPS,ioos:station:USF.COMPS:ANC:1,2009-08-09T19:48:00Z,28.1930,-82.7890,1019.82,1111122 
COMPS,ioos:station:USF.COMPS:ANC:1,2009-08-09T19:54:00Z,28.1930,-82.7890,1019.77,1111122 
COMPS,ioos:station:USF.COMPS:ANC:1,2009-08-09T20:00:00Z,28.1930,-82.7890,1019.74,1111122 
COMPS,ioos:station:USF.COMPS:ANC:1,2009-08-09T20:06:00Z,28.1930,-82.7890,1019.73,1111122 
COMPS,ioos:station:USF.COMPS:ANC:1,2009-08-09T20:12:00Z,28.1930,-82.7890,1019.58,1111122 
COMPS,ioos:station:USF.COMPS:ANC:1,2009-08-09T20:18:00Z,28.1930,-82.7890,1019.5,1111122 
COMPS,ioos:station:USF.COMPS:ANC:1,2009-08-09T20:24:00Z,28.1930,-82.7890,1019.48,1111122 
COMPS,ioos:station:USF.COMPS:ANC:1,2009-08-09T20:30:00Z,28.1930,-82.7890,1019.42,1111122 
COMPS,ioos:station:USF.COMPS:ANC:1,2009-08-09T20:36:00Z,28.1930,-82.7890,1019.32,1111122 
COMPS,ioos:station:USF.COMPS:ANC:1,2009-08-09T20:42:00Z,28.1930,-82.7890,1019.28,1111122 
COMPS,ioos:station:USF.COMPS:ANC:1,2009-08-09T20:48:00Z,28.1930,-82.7890,1019.24,1111122 
COMPS,ioos:station:USF.COMPS:ANC:1,2009-08-09T20:54:00Z,28.1930,-82.7890,1019.13,1111122 
COMPS,ioos:station:USF.COMPS:ANC:1,2009-08-09T21:00:00Z,28.1930,-82.7890,1019.06,1111122 
COMPS,ioos:station:USF.COMPS:ANC:1,2009-08-09T21:06:00Z,28.1930,-82.7890,1019.06,1111122 
COMPS,ioos:station:USF.COMPS:ANC:1,2009-08-09T21:12:00Z,28.1930,-82.7890,1019.04,1111122 
COMPS,ioos:station:USF.COMPS:ANC:1,2009-08-09T21:18:00Z,28.1930,-82.7890,1019.06,1111122 
COMPS,ioos:station:USF.COMPS:ANC:1,2009-08-09T21:24:00Z,28.1930,-82.7890,1019.05,1111122 
COMPS,ioos:station:USF.COMPS:ANC:1,2009-08-09T21:30:00Z,28.1930,-82.7890,1019.05,1111122 
COMPS,ioos:station:USF.COMPS:ANC:1,2009-08-09T21:36:00Z,28.1930,-82.7890,1019.06,1111122 
COMPS,ioos:station:USF.COMPS:ANC:1,2009-08-09T21:42:00Z,28.1930,-82.7890,1019.04,1111122 
COMPS,ioos:station:USF.COMPS:ANC:1,2009-08-09T21:48:00Z,28.1930,-82.7890,1019.02,1111122 
COMPS,ioos:station:USF.COMPS:ANC:1,2009-08-09T21:54:00Z,28.1930,-82.7890,1018.98,1111122 
COMPS,ioos:station:USF.COMPS:ANC:1,2009-08-09T22:00:00Z,28.1930,-82.7890,1019.0,1111122 
COMPS,ioos:station:USF.COMPS:ANC:1,2009-08-09T22:06:00Z,28.1930,-82.7890,1018.94,1111122 
COMPS,ioos:station:USF.COMPS:ANC:1,2009-08-09T22:12:00Z,28.1930,-82.7890,1018.96,1111122 
COMPS,ioos:station:USF.COMPS:ANC:1,2009-08-09T22:18:00Z,28.1930,-82.7890,1019.02,1111122 
COMPS,ioos:station:USF.COMPS:ANC:1,2009-08-09T22:24:00Z,28.1930,-82.7890,1019.04,1111122 
COMPS,ioos:station:USF.COMPS:ANC:1,2009-08-09T22:30:00Z,28.1930,-82.7890,1018.94,1111122 
COMPS,ioos:station:USF.COMPS:ANC:1,2009-08-09T22:36:00Z,28.1930,-82.7890,1018.96,1111122 
COMPS,ioos:station:USF.COMPS:ANC:1,2009-08-09T22:42:00Z,28.1930,-82.7890,1018.94,1111122 
COMPS,ioos:station:USF.COMPS:ANC:1,2009-08-09T22:48:00Z,28.1930,-82.7890,1018.94,1111122 
COMPS,ioos:station:USF.COMPS:ANC:1,2009-08-09T22:54:00Z,28.1930,-82.7890,1018.9,1111122 
COMPS,ioos:station:USF.COMPS:ANC:1,2009-08-09T23:00:00Z,28.1930,-82.7890,1018.84,1111122 
COMPS,ioos:station:USF.COMPS:ANC:1,2009-08-09T23:06:00Z,28.1930,-82.7890,1018.86,1111122 
COMPS,ioos:station:USF.COMPS:ANC:1,2009-08-09T23:12:00Z,28.1930,-82.7890,1018.9,1111122 
COMPS,ioos:station:USF.COMPS:ANC:1,2009-08-09T23:18:00Z,28.1930,-82.7890,1018.94,1111122 
COMPS,ioos:station:USF.COMPS:ANC:1,2009-08-09T23:24:00Z,28.1930,-82.7890,1019.02,1111122 
COMPS,ioos:station:USF.COMPS:ANC:1,2009-08-09T23:30:00Z,28.1930,-82.7890,1019.01,1111122 